STARLINK-37147

Last updated on Sun Apr 12 2026 00:02:08 GMT+0000 (Coordinated Universal Time)

1 68295U 26057B 26100.33645473 .00377787 00000+0 18619-2 0 9999 2 68295 97.2842 224.3109 0001024 72.9582 287.1798 15.81130664 3263
UTC large
Height (km)
Speed (km/s)
/
Latitude / Longitude
Inclination (degrees)
Orbital Period (minutes)
Azimuth
Elevation
Range (km)
Doppler Factor

Next 0 passes for location: London (51.5072 / 0.1276)

Sorry there are no passes over London.
STARLINK-37147